Dewpoint
54 50 49 39 31 28 25 27 30 33 36 38 40 43 44 48 50 49 53 58 60 61 65 66 69 69 68 67 68 68 68 67 67 65 65 65 65 67 67 66 66 65 65 65 66 66 67 67 68
45 41 36 33 28 22 27 30 31 35 41 43 46 45 43 49 52 56 59 61 63 63 63 64 69 69 69 68 68 68 67 67 66 67 66 66 66 65 63 63 64 64 65 65 67 67 66 67 67
46 36 32 24 21 18 26 30 34 42 42 44 46 47 47 51 52 54 62 63 64 63 65 66 68 68 68 68 68 66 66 66 66 65 65 64 64 63 61 62 63 62 65 66 66 66 65 65 65
37 31 27 22 19 29 27 33 39 42 43 45 47 49 51 53 53 61 63 63 63 65 65 67 68 68 68 67 66 65 65 64 64 63 62 62 62 61 61 61 61 61 64 65 63 63 63 63 62
33 26 20 21 28 32 33 37 40 42 44 45 46 48 52 53 57 62 63 63 64 65 66 66 68 68 67 66 64 64 63 63 62 60 59 59 60 60 59 59 60 62 64 63 62 62 62 62 62
23 20 20 21 30 34 35 39 41 42 47 48 48 51 54 53 59 63 63 64 65 65 66 65 67 67 66 65 63 63 63 62 61 61 59 58 58 58 58 58 60 62 62 61 61 61 61 61 61
22 21 22 21 29 33 37 41 40 43 47 48 50 52 56 54 60 62 64 66 66 66 66 65 65 65 64 63 63 63 63 62 61 60 60 59 60 59 58 58 60 62 61 61 61 61 60 60 59
21 17 19 22 24 34 38 40 42 43 49 53 51 51 55 55 62 63 64 65 65 65 65 64 64 62 62 60 61 61 61 61 60 58 58 57 57 57 57 57 59 60 60 60 60 60 59 57 56
16 9 12 19 22 34 40 38 44 50 53 53 55 53 55 57 62 61 62 63 63 63 63 63 61 59 60 57 57 58 58 58 57 55 55 56 52 52 53 56 58 59 59 59 59 59 55 52 51
10 8 12 16 19 24 35 36 45 47 50 55 55 55 56 58 58 59 59 60 61 62 62 63 59 58 57 53 56 55 53 54 52 52 52 51 52 51 49 53 56 57 57 58 57 57 53 51 47
9 6 11 13 21 23 25 33 43 41 44 50 53 54 55 56 56 57 55 57 59 60 60 61 60 60 59 57 57 56 55 55 54 53 51 50 48 49 46 47 48 51 53 47 51 52 50 47 46
5 8 8 17 24 22 25 30 39 38 47 52 55 55 54 54 54 54 55 56 58 59 60 60 61 61 61 58 56 55 54 54 52 51 52 51 48 48 45 43 44 44 46 48 47 49 50 49 48
6 8 10 8 16 26 29 32 34 40 54 54 55 54 54 53 52 54 54 56 58 58 59 59 60 61 60 58 56 55 54 52 51 50 50 47 46 47 45 45 41 42 45 46 46 48 47 47 46
14 9 7 7 10 29 31 31 43 41 55 54 55 54 53 52 52 53 53 56 58 58 58 59 60 61 60 58 57 56 53 53 50 48 49 48 45 45 45 42 39 38 40 43 44 45 46 45 45
10 7 4 8 14 26 37 32 42 44 55 53 55 55 54 52 52 53 54 57 58 58 58 59 59 60 59 57 57 54 52 50 48 47 47 45 43 42 40 38 36 36 41 44 46 46 45 44 43
9 7 5 10 23 32 39 22 34 45 53 51 54 55 54 53 53 54 56 57 57 58 58 59 57 58 58 56 54 51 51 49 47 46 44 42 41 40 36 34 33 37 39 41 44 44 41 41 40
11 8 6 9 22 27 37 25 41 47 47 47 52 54 54 54 54 55 57 58 57 56 58 58 56 57 57 55 53 51 51 47 45 44 41 40 38 37 33 32 37 38 35 39 42 42 41 40 39
15 11 10 11 21 27 27 30 30 40 43 44 48 51 53 53 53 55 57 58 58 56 58 57 56 57 56 55 53 51 50 46 45 42 39 38 36 36 33 34 38 35 35 38 40 41 41 39 36
17 15 14 14 14 14 18 16 17 22 35 39 42 49 53 55 56 56 59 59 59 58 58 56 56 56 55 53 51 49 47 45 43 40 42 37 35 35 34 33 38 35 36 37 42 41 40 37 35
18 19 19 19 16 18 19 16 15 16 19 24 35 44 54 55 56 56 59 58 58 58 58 56 56 56 55 53 52 49 46 44 42 41 41 37 36 36 34 33 34 35 39 41 41 40 36 35 36
20 20 20 19 18 18 17 15 14 17 19 24 26 35 47 54 55 55 58 59 59 58 58 57 56 56 54 52 51 48 46 44 42 41 40 39 36 35 32 34 33 37 38 40 41 39 37 35 36
17 19 18 17 17 14 15 10 12 14 15 20 27 32 40 48 53 56 58 59 59 59 58 57 56 55 55 53 50 47 45 42 41 41 39 38 36 34 35 34 35 37 36 38 40 39 37 35 34
16 22 20 20 19 18 15 12 11 10 13 18 21 27 37 43 49 53 57 59 60 59 58 58 57 55 54 53 49 48 45 43 41 40 39 37 36 35 34 35 35 36 34 38 38 38 39 36 33
20 21 21 21 19 15 13 11 4 10 15 16 19 21 22 35 45 50 55 59 59 60 60 58 57 55 55 53 51 49 48 44 41 41 40 37 36 36 35 35 36 36 34 36 36 36 38 35 32
23 22 14 9 13 12 15 13 10 12 18 19 19 20 23 26 33 45 52 57 59 59 60 59 57 55 55 54 52 50 48 47 45 43 41 38 37 36 36 37 37 36 35 36 34 35 33 34 32
21 20 15 11 6 8 12 10 11 15 18 20 23 26 27 26 29 39 47 55 59 59 59 59 57 56 55 54 52 51 49 47 46 44 42 40 39 39 40 39 39 36 36 36 35 34 34 34 34
18 19 19 19 17 13 12 11 14 17 19 22 23 25 26 29 31 37 45 54 57 59 59 59 58 56 56 54 52 51 51 49 48 46 46 44 42 40 43 42 39 37 36 35 35 33 34 33 35
21 19 20 20 18 14 8 9 9 18 20 21 23 27 28 29 29 30 39 47 57 59 58 59 59 57 56 54 53 52 52 51 50 48 47 46 46 44 44 42 41 39 38 36 36 35 34 33 35
16 19 21 19 17 16 15 13 18 22 24 24 25 26 29 31 32 32 34 42 50 59 59 59 58 57 56 54 53 52 52 51 51 50 49 48 48 47 44 43 42 40 37 38 36 34 32 33 35
17 18 20 22 22 22 21 23 24 25 28 28 27 28 28 31 32 32 40 42 49 58 59 59 58 56 55 54 53 53 52 52 51 51 51 51 49 48 46 44 42 40 38 38 36 34 30 33 32
Wind_Speed
7 10 12 9 10 6 10 12 8 11 8 8 11 12 16 17 12 10 16 15 17 17 18 15 14 13 12 13 13 13 13 12 12 13 12 12 13 17 16 17 16 13 12 13 13 14 14 14 15
14 9 9 13 16 6 16 6 11 9 10 14 10 3 8 14 12 15 13 10 19 18 16 16 15 12 11 11 13 13 12 13 11 12 12 12 11 16 16 16 12 13 13 13 15 15 16 16 16
12 11 15 10 4 18 10 4 11 12 12 10 6 11 6 7 12 12 22 15 16 16 16 18 15 13 13 15 15 15 13 13 12 11 13 14 13 14 16 15 14 14 14 16 18 17 17 16 15
9 8 10 17 12 7 8 8 11 10 8 5 13 9 9 9 7 12 17 17 16 15 16 18 16 16 17 16 15 14 13 14 14 12 14 14 13 14 16 15 15 14 15 18 18 17 17 16 15
13 13 20 4 7 7 1 10 9 8 9 5 4 9 10 6 13 16 15 16 17 16 17 19 18 17 17 15 13 13 14 15 15 15 14 15 15 15 16 15 15 15 17 16 18 17 17 15 14
13 8 18 1 12 4 6 8 4 4 7 5 8 13 7 10 17 11 16 16 16 17 17 19 18 17 16 13 14 14 14 16 15 15 15 16 16 15 15 15 15 16 16 17 18 17 17 16 14
17 14 11 7 9 6 7 6 5 6 8 5 12 7 7 11 16 14 13 17 16 17 16 15 16 15 16 14 14 14 16 16 16 16 15 16 16 16 15 15 16 16 16 18 18 18 17 16 15
14 14 5 2 2 13 7 8 2 5 9 5 3 7 8 19 18 17 15 14 15 15 15 14 14 14 14 13 13 15 15 15 15 14 13 16 15 14 12 16 14 15 16 17 18 18 17 14 12
9 16 7 4 4 11 9 9 5 7 8 3 1 1 15 27 23 18 16 13 13 12 12 12 11 14 14 14 14 14 13 13 14 12 7 11 9 10 12 13 12 14 16 16 15 16 17 16 12
12 11 8 8 7 2 7 8 12 8 10 4 6 11 25 27 24 22 20 17 14 14 13 12 12 14 15 14 14 11 12 9 8 7 6 6 7 10 11 10 12 13 14 12 11 13 15 12 10
3 10 6 2 6 5 6 9 10 12 12 12 13 19 26 26 24 22 19 19 18 17 14 13 7 9 10 12 11 9 7 8 7 5 5 7 9 8 7 9 10 10 12 11 10 10 6 10 10
11 1 3 5 1 7 8 4 6 10 6 3 17 23 25 26 25 23 23 21 19 17 15 15 12 8 8 9 9 7 7 7 8 7 5 5 6 4 2 3 5 4 3 5 4 9 10 11 12
10 2 3 2 5 6 7 7 8 8 4 7 17 22 24 24 24 23 22 20 19 18 18 17 14 12 10 9 7 7 7 7 8 7 4 2 4 5 4 3 2 3 4 4 7 9 10 11 11
6 8 10 8 9 6 9 12 2 9 8 12 17 20 21 23 24 23 22 22 20 19 18 16 15 12 12 9 9 8 7 9 7 7 6 3 4 5 7 6 5 4 3 4 7 9 9 10 11
8 12 15 13 10 8 7 15 15 8 13 15 16 17 19 22 23 24 23 22 23 20 19 17 15 13 13 11 11 10 9 9 8 7 5 5 5 5 6 6 6 5 4 2 7 7 9 9 10
13 15 16 8 6 6 8 17 18 16 15 16 16 17 20 22 23 22 19 19 21 21 21 18 15 15 14 13 12 10 11 9 8 8 7 5 5 6 5 6 6 6 6 6 7 7 8 9 9
17 14 11 6 8 7 10 14 10 11 14 17 17 17 19 21 23 21 21 21 21 22 20 20 18 17 16 14 12 10 11 9 8 8 8 7 6 5 4 6 7 6 6 5 7 7 8 8 8
15 11 9 8 8 5 15 16 18 14 17 17 16 17 19 21 24 22 18 22 21 20 22 19 18 17 16 14 13 12 12 9 9 9 8 9 8 7 6 6 7 6 7 8 8 8 7 8 9
9 10 12 13 13 6 15 20 20 20 18 17 17 18 21 22 20 21 24 24 21 20 21 20 19 19 17 16 15 15 15 12 10 9 10 9 10 8 7 8 6 5 8 8 8 9 11 9 9
10 11 14 11 5 6 15 20 20 21 21 18 18 20 21 23 27 26 24 25 25 23 22 23 22 21 19 17 16 14 14 14 12 11 11 10 11 10 9 9 8 7 9 10 11 11 10 10 11
12 13 12 13 14 17 22 25 22 21 20 16 17 17 21 26 27 26 25 25 25 28 27 25 23 22 21 19 17 16 13 12 13 13 13 12 12 12 9 9 9 9 10 12 12 12 10 11 10
14 3 5 11 13 16 18 22 17 17 15 16 14 16 18 21 26 27 24 26 28 28 26 27 25 24 25 25 21 22 20 18 15 16 14 14 14 13 12 11 11 10 10 12 12 11 11 7 9
9 3 11 13 15 17 17 14 13 7 8 9 10 12 15 19 22 28 28 25 26 28 29 29 27 29 27 24 22 22 21 18 16 16 17 15 14 14 13 13 12 11 10 11 11 10 10 8 7
8 11 17 18 16 16 5 4 7 5 9 11 9 9 11 19 21 24 26 26 28 27 26 26 28 29 28 27 26 24 23 20 19 18 18 17 16 15 14 14 13 12 11 11 10 10 10 8 7
10 10 10 9 11 13 9 7 8 9 5 7 10 13 11 9 10 20 26 29 29 32 29 27 30 31 29 29 28 26 25 21 20 21 20 20 18 16 17 16 15 13 12 11 11 11 10 10 10
8 11 11 9 11 16 20 10 3 2 5 6 8 8 7 10 10 12 21 29 32 31 33 32 33 31 30 29 28 24 25 21 19 22 20 19 18 17 18 18 16 15 14 13 12 11 11 12 11
6 10 6 10 17 21 20 14 13 15 6 3 9 7 9 8 10 11 13 26 29 31 34 34 31 31 31 30 26 26 24 24 22 22 20 18 18 18 19 19 18 17 17 16 15 14 15 12 10
15 6 8 12 9 13 10 13 19 11 6 4 8 12 15 16 18 17 12 16 28 31 31 33 32 31 30 29 28 27 26 24 22 21 23 20 19 19 21 22 21 20 19 18 18 15 15 14 12
16 17 15 17 18 22 26 13 4 4 8 10 12 15 16 19 20 18 19 15 20 29 29 31 31 31 29 29 28 27 27 26 25 23 23 22 20 21 22 23 22 21 20 20 18 17 15 17 15
22 24 19 19 17 21 24 32 15 15 19 8 16 17 20 21 21 20 15 19 16 23 28 29 29 30 30 30 32 32 28 28 27 26 24 23 23 22 22 23 23 23 24 20 20 19 17 17 18
Wind_Direction
217 202 226 238 253 257 85 71 87 85 105 68 61 34 66 32 22 97 126 93 120 121 127 137 116 115 115 117 118 114 105 101 93 89 84 85 82 73 74 69 66 72 79 75 68 66 64 70 77
239 206 233 272 253 151 83 71 90 95 96 98 85 102 47 66 73 110 120 135 126 142 138 134 125 129 132 129 114 105 100 94 88 88 88 84 72 74 77 76 72 74 76 80 75 68 69 68 70
252 224 273 253 290 27 49 81 92 98 128 146 107 36 38 81 110 114 118 136 128 133 126 122 133 134 124 102 98 100 100 94 86 86 86 85 83 81 79 76 76 73 77 80 75 70 71 70 71
206 203 244 259 20 66 27 91 104 136 150 165 90 81 90 95 109 106 130 137 137 129 124 127 127 117 107 97 97 94 89 91 95 94 92 86 88 87 79 72 74 73 80 81 83 79 76 72 69
238 260 267 243 65 82 58 110 144 157 148 165 176 114 99 110 112 120 141 134 130 123 128 127 116 108 102 108 112 104 106 104 99 97 93 91 89 89 86 82 79 82 81 83 83 82 81 78 71
247 255 265 307 83 95 113 142 152 145 121 111 110 116 100 135 123 132 122 119 121 130 133 127 105 97 98 107 107 104 104 103 102 99 95 91 86 85 88 85 87 93 93 88 85 82 78 73 65
244 274 309 323 90 170 136 159 172 150 146 169 124 141 138 167 129 138 118 108 117 125 124 130 125 110 99 103 102 104 100 99 97 98 97 91 83 76 76 79 84 92 92 90 88 82 75 69 53
282 277 260 225 182 106 128 187 125 174 114 101 198 200 171 168 151 142 134 127 126 122 129 128 133 142 130 126 104 104 102 103 106 106 108 108 105 106 105 97 81 92 94 92 90 89 84 73 60
269 271 260 46 302 84 130 196 172 83 131 142 107 225 128 154 154 153 145 146 142 140 139 131 164 143 135 133 123 117 120 125 123 121 140 165 96 102 84 72 82 88 91 96 102 108 111 96 72
274 290 40 10 6 356 170 235 155 198 156 159 143 105 140 152 162 162 165 167 162 154 153 156 178 149 151 143 160 145 158 151 132 136 123 102 75 73 95 103 99 97 101 106 128 145 152 166 117
327 318 40 140 351 308 256 201 151 227 187 196 177 153 155 161 167 170 174 173 171 170 164 167 169 145 182 152 160 166 150 144 123 123 122 123 132 147 135 140 142 130 153 135 167 185 186 62 77
276 239 294 65 20 284 278 261 177 234 90 45 156 164 165 172 172 176 177 174 173 173 172 165 172 175 218 165 184 150 154 148 149 122 137 140 138 120 115 105 109 161 133 108 121 88 93 91 86
266 208 259 247 273 260 284 258 247 199 111 131 155 169 174 179 174 182 181 171 176 177 179 171 169 171 179 192 142 166 139 172 121 148 126 129 120 110 117 98 82 98 143 141 112 127 112 105 97
9 286 275 271 255 222 260 246 224 221 159 164 168 180 182 185 181 180 184 172 176 181 177 176 175 182 174 182 164 154 167 127 162 138 121 131 131 134 132 141 134 126 133 141 138 131 134 111 108
276 268 255 227 243 245 240 259 214 221 183 186 187 190 187 192 187 186 188 173 180 182 178 176 176 180 181 165 167 168 153 173 151 123 137 128 134 146 137 135 138 122 97 128 111 138 118 123 105
253 246 265 128 198 173 234 273 184 175 193 206 196 200 194 196 194 192 184 182 185 181 180 179 177 183 181 173 171 168 154 164 149 147 143 138 135 150 159 148 135 126 164 152 144 146 138 133 128
219 269 256 207 183 252 209 272 129 180 206 219 204 202 201 197 196 194 184 192 195 186 178 183 181 183 182 170 173 163 158 166 156 152 147 143 145 161 154 134 124 180 147 153 167 154 150 135 133
328 311 282 258 142 215 265 244 266 190 228 226 221 210 206 208 202 186 191 194 192 191 179 188 183 183 183 173 173 165 169 165 159 163 152 158 150 158 167 137 149 167 151 157 163 157 150 154 152
294 288 284 282 284 250 271 274 270 271 221 237 236 211 201 214 224 211 187 196 182 195 176 189 188 184 182 183 182 176 174 172 173 169 153 165 157 161 170 151 157 158 155 154 153 157 161 155 147
266 275 272 276 276 273 276 274 276 274 259 244 234 227 206 230 207 211 192 200 188 187 184 191 191 185 189 189 191 185 181 174 172 162 172 171 169 171 174 161 164 169 143 154 160 164 168 169 180
259 269 276 286 305 283 265 264 253 261 235 255 263 237 208 207 228 212 199 202 200 197 193 192 191 186 195 193 189 183 177 172 175 172 176 180 178 179 173 172 166 167 163 164 170 177 183 180 198
274 348 294 278 283 287 324 294 293 280 279 228 224 240 235 216 211 225 202 195 206 205 197 194 192 190 195 196 193 187 182 186 190 181 181 176 183 181 176 176 171 177 178 168 184 188 194 212 203
271 301 281 283 279 288 279 271 286 264 289 289 268 235 221 232 224 213 209 203 203 209 200 197 194 197 196 198 196 190 190 190 185 184 173 179 182 185 183 180 178 186 189 179 190 189 209 205 238
289 274 269 261 257 265 262 335 292 34 354 320 326 295 264 214 210 221 206 192 199 202 208 200 200 203 200 198 200 197 194 187 180 183 178 183 182 183 190 187 186 186 190 181 189 196 205 219 219
230 264 280 250 200 252 117 277 288 342 351 328 316 307 304 314 239 208 205 202 196 199 199 201 202 207 200 200 200 196 198 194 184 184 185 184 184 187 188 190 189 189 189 183 186 189 193 202 207
210 257 269 288 285 307 321 283 100 58 316 307 310 302 291 277 280 235 215 203 205 202 199 199 202 206 201 198 201 203 200 199 193 189 192 190 190 189 179 189 190 190 187 185 188 193 197 199 208
186 238 282 284 275 268 264 244 227 215 198 254 337 308 294 281 277 269 229 202 202 204 202 205 204 204 203 194 199 204 202 201 197 192 199 193 191 189 178 187 188 190 189 193 191 196 202 197 200
247 295 253 220 273 275 273 296 291 169 186 302 325 322 314 312 306 302 244 227 198 204 199 207 204 204 201 190 197 199 204 206 200 198 195 196 192 193 179 188 190 192 193 194 196 204 199 197 201
223 235 241 266 268 275 281 271 17 236 261 295 314 320 311 309 301 290 293 249 220 194 197 205 202 203 197 194 194 200 204 204 208 201 196 202 194 193 187 192 192 193 195 199 200 201 201 197 199
247 262 235 229 252 252 263 271 267 272 273 260 306 305 298 302 297 286 280 264 227 194 203 201 199 199 194 192 198 202 203 205 204 207 200 198 200 198 194 194 195 194 202 199 201 203 203 201 211